TIME,�g��[���C[MJ/h],����[MJ/h],�Ɩ�[MJ/h],�~�[[MJ/h],�①��[MJ/h],��y���[MJ/h],�Ǝ��q��[MJ/h],���̑�[MJ/h],�����G�l���M�[[MJ/h]
2003/8/1 0:00,0,0,0,0.1207,0.1748,0.38,0.0259,1.4619,0
2003/8/1 0:15,0,0,0,0.1319,0.2897,0.2478,0.0287,0.9423,0
2003/8/1 0:30,0,0,0,0.1263,0.4545,0.0435,0.0278,0.3365,0
2003/8/1 0:45,0,0,0,0.126,0.2059,0.0433,0.0776,0.2815,0
2003/8/1 1:00,0,0,0,0.1293,0.2697,0.0435,0.0164,0.2928,0
2003/8/1 1:15,0,0,0,0.1251,0.3898,0.0438,0.0157,0.2864,0
2003/8/1 1:30,0,0,0,0.1238,0.1752,0.0428,0.0167,0.2773,0
2003/8/1 1:45,0,0,0,0.131,0.2798,0.0428,0.0164,0.2716,0
2003/8/1 2:00,0,0,0,0.1251,0.3959,0.0429,0.017,0.2835,0
2003/8/1 2:15,0,0,0,0.127,0.1735,0.0426,0.066,0.2749,0
2003/8/1 2:30,0,0,0,0.1266,0.2791,0.0435,0.017,0.2828,0
2003/8/1 2:45,0,0,0,0.1244,0.3866,0.0436,0.0171,0.2879,0
2003/8/1 3:00,0,0,0,0.1256,0.4087,0.0436,0.0173,0.2724,0
2003/8/1 3:15,0,0,0,0.1282,0.3155,0.0439,0.0174,0.2884,0
2003/8/1 3:30,0,0,0,0.1273,0.5426,0.0433,0.0696,0.2759,0
2003/8/1 3:45,0,0,0,0.1261,0.5702,0.0431,0.0173,0.2863,0
2003/8/1 4:00,0,0,0,0.1283,0.5064,0.0433,0.0176,0.2784,0
2003/8/1 4:15,0,0,0,0.1273,0.553,0.0433,0.0174,0.283,0
2003/8/1 4:30,0,0,0,0.1244,0.5221,0.0436,0.0179,0.282,0
2003/8/1 4:45,0,0,0,0.1256,0.5088,0.0435,0.0176,0.2786,0
2003/8/1 5:00,0,0,0,0.129,0.3177,0.0436,0.0626,0.2864,0
2003/8/1 5:15,0,0,0,0.1277,0.1119,0.0438,0.0179,0.2808,0
2003/8/1 5:30,0,0,0,0.1293,0.4524,0.0433,0.0181,0.3142,0
2003/8/1 5:45,0,0,0,0.1261,0.2398,0.0432,0.0176,0.264,0
2003/8/1 6:00,0,0,0,0.1267,0.2242,0.0432,0.0183,0.274,0
2003/8/1 6:15,0,0,0,0.1277,0.4329,0.0432,0.0677,0.2696,0
2003/8/1 6:30,0,0,0,0.1299,0.0645,0.0429,0.0181,0.2519,0
2003/8/1 6:45,0,0,0,0.1269,0.4517,0.0433,0.0181,0.2576,0
2003/8/1 7:00,0,0,0,0.1267,0.128,0.0603,0.033,0.2601,0
2003/8/1 7:15,0,0,0,0.1295,0.3367,0.0435,0.0298,0.2668,0
2003/8/1 7:30,0,0,0,0.1297,0.2987,0.0433,0.0783,0.269,0
2003/8/1 7:45,0,0,0,0.1279,0.1492,0.0429,0.0258,0.408,0
2003/8/1 8:00,0,0,0,0.1282,0.3957,0.0428,0.0297,0.6612,0
2003/8/1 8:15,0,0,0,0.1312,0.0698,0.2262,0.0615,0.8067,0
2003/8/1 8:30,0,0,0,0.1296,0.3943,0.4232,0.0281,1.0627,0
2003/8/1 8:45,0,0,0,0.3447,0.2837,0.4458,0.0285,1.1491,0
2003/8/1 9:00,0,0,0,0.1276,0.1649,0.4457,0.0831,1.2565,0
2003/8/1 9:15,0,0,0,0.1267,0.3989,0.4304,0.0343,1.4514,0
2003/8/1 9:30,0,0,0,0.0465,0.1247,0.3038,0.0336,1.1539,0
2003/8/1 9:45,0,0,0,0.0148,0.3358,0.0431,0.0815,0.5861,0
2003/8/1 10:00,0,0,0,0.0147,0.3168,0.0432,0.0304,0.2634,0
2003/8/1 10:15,0,0,0,0.0148,0.1437,0.0431,0.0297,0.2575,0
2003/8/1 10:30,0,0,0,0.0147,0.446,0.0433,0.0298,0.2667,0
2003/8/1 10:45,0,0,0,0.015,0.0815,0.0435,0.0292,0.2642,0
2003/8/1 11:00,0,0,0,0.0147,0.4254,0.0435,0.0294,0.2596,0
2003/8/1 11:15,0,0,0,0.0148,0.1378,0.0433,0.076,0.2608,0
2003/8/1 11:30,0,0,0,0.0147,0.3637,0.0432,0.0289,0.2484,0
2003/8/1 11:45,0,0,0,0.0147,0.4146,0.0431,0.0291,0.2552,0
2003/8/1 12:00,0,0,0,0.0148,0.1179,0.052,0.0285,0.2576,0
2003/8/1 12:15,0,0,0,0.0148,0.23,0.0432,0.0288,0.2532,0
2003/8/1 12:30,0,0,0,0.0147,0.4406,0.0435,0.0759,0.2599,0
2003/8/1 12:45,0,0,0,0.0148,0.1152,0.0431,0.0284,0.2552,0
2003/8/1 13:00,0,0,0,0.0147,0.3208,0.0609,0.0281,0.2503,0
2003/8/1 13:15,0,0,0,0.0147,0.2964,0.1104,0.0278,0.2598,0
2003/8/1 13:30,0,0,0,0.0147,0.1901,0.0939,0.0278,0.257,0
2003/8/1 13:45,0,0,0,0.0147,0.3761,0.0428,0.0739,0.2557,0
2003/8/1 14:00,0,0,0,0.0147,0.1257,0.0428,0.0276,0.2601,0
2003/8/1 14:15,0,0,0,0.0145,0.4405,0.0431,0.0272,0.2494,0
2003/8/1 14:30,0,0,0,0.0147,0.0478,0.0429,0.0271,0.2552,0
2003/8/1 14:45,0,0,0,0.0147,0.4019,0.0428,0.0268,0.251,0
2003/8/1 15:00,0,0,0,0.0147,0.185,0.0429,0.0268,0.2516,0
2003/8/1 15:15,0,0,0,0.0147,0.2668,0.0431,0.0743,0.2501,0
2003/8/1 15:30,0,0,0,0.0145,0.3144,0.0426,0.0268,0.2549,0
2003/8/1 15:45,0,0,0,0.0147,0.1371,0.0428,0.0264,0.2513,0
2003/8/1 16:00,0,0,0,0.0145,0.3961,0.0425,0.0261,0.246,0
2003/8/1 16:15,0,0,0,0.0145,0.0808,0.0429,0.0265,0.249,0
2003/8/1 16:30,0,0,0,0.0147,0.3807,0.0428,0.0261,0.247,0
2003/8/1 16:45,0,0,0,0.0147,0.1918,0.0428,0.073,0.2572,0
2003/8/1 17:00,0,0,0,0.0145,0.2619,0.0428,0.0259,0.2536,0
2003/8/1 17:15,0,0,0,0.0147,0.3059,0.0426,0.0259,0.2517,0
2003/8/1 17:30,0,0,0,0.0145,0.1453,0.0429,0.0255,0.2496,0
2003/8/1 17:45,0,0,0,0.0145,0.393,0.0426,0.0256,0.2519,0
2003/8/1 18:00,0,0,0,0.0147,0.1067,0.0428,0.0255,0.2559,0
2003/8/1 18:15,0,0,0,0.0144,0.3515,0.0423,0.066,0.2563,0
2003/8/1 18:30,0,0,0,0.0147,0.2321,0.0429,0.0132,0.2536,0
2003/8/1 18:45,0,0,0,0.0148,0.2208,0.0438,0.0148,0.2546,0
2003/8/1 19:00,0,0,0,0.0147,0.3865,0.0606,0.0298,0.2945,0
2003/8/1 19:15,0,0,0,0.0147,0.0588,0.0429,0.0259,0.3057,0
2003/8/1 19:30,0,0,0,0.0147,0.4072,0.0431,0.0256,0.3118,0
2003/8/1 19:45,0,0,0,0.0147,0.1558,0.0432,0.0772,0.3056,0
2003/8/1 20:00,0,0,0,0.0147,0.2987,0.0432,0.0253,0.3057,0
2003/8/1 20:15,0,0,0,0.0147,0.2943,0.0431,0.0253,0.3142,0
2003/8/1 20:30,0,0,0,0.0147,0.1554,0.0428,0.0255,0.3061,0
2003/8/1 20:45,0,0,0,0.0145,0.392,0.0428,0.0252,0.3097,0
2003/8/1 21:00,0,0,0,0.0147,0.0729,0.0429,0.0255,0.3041,0
2003/8/1 21:15,0,0,0,0.0145,0.3871,0.0428,0.0744,0.3053,0
2003/8/1 21:30,0,0,0,0.0147,0.1958,0.0426,0.0252,0.3041,0
2003/8/1 21:45,0,0,0,0.0147,0.2568,0.0431,0.0255,0.3164,0
2003/8/1 22:00,0,0,0,0.0147,0.3325,0.0431,0.0252,0.3102,0
2003/8/1 22:15,0,0,0,0.0147,0.1159,0.0431,0.0251,0.3072,0
2003/8/1 22:30,0,0,0,0.0145,0.3989,0.0431,0.0253,0.3097,0
2003/8/1 22:45,0,0,0,0.0147,0.0972,0.0425,0.0249,0.3054,0
2003/8/1 23:00,0,0,0,0.0145,0.3619,0.0428,0.0743,0.3118,0
2003/8/1 23:15,0,0,0,0.0145,0.2511,0.0428,0.0251,0.3162,0
2003/8/1 23:30,0,0,0,0.0147,0.2009,0.0426,0.0253,0.3057,0
2003/8/1 23:45,0,0,0,0.0147,0.3794,0.0433,0.0253,0.3208,0
2003/8/2 0:00,0,0,0,0.0147,0.0622,0.0432,0.0248,0.2782,0
2003/8/2 0:15,0,0,0,0.0148,0.4054,0.0432,0.0256,0.265,0
2003/8/2 0:30,0,0,0,0.0147,0.132,0.0431,0.0755,0.2534,0
2003/8/2 0:45,0,0,0,0.0147,0.3241,0.0429,0.0251,0.2503,0
2003/8/2 1:00,0,0,0,0.0147,0.2763,0.0432,0.0156,0.2635,0
2003/8/2 1:15,0,0,0,0.0148,0.1734,0.0433,0.013,0.2543,0
2003/8/2 1:30,0,0,0,0.0147,0.3933,0.0429,0.0147,0.2651,0
2003/8/2 1:45,0,0,0,0.0145,0.0528,0.0426,0.0148,0.2521,0
2003/8/2 2:00,0,0,0,0.0147,0.4078,0.0429,0.0683,0.2547,0
2003/8/2 2:15,0,0,0,0.0147,0.177,0.0429,0.015,0.2614,0
2003/8/2 2:30,0,0,0,0.0147,0.2791,0.0432,0.0153,0.2583,0
2003/8/2 2:45,0,0,0,0.0148,0.3797,0.0433,0.0153,0.2658,0
2003/8/2 3:00,0,0,0,0.0147,0.4062,0.0433,0.0151,0.2615,0
2003/8/2 3:15,0,0,0,0.015,0.391,0.0438,0.0153,0.2668,0
2003/8/2 3:30,0,0,0,0.0148,0.5793,0.0439,0.0156,0.2722,0
2003/8/2 3:45,0,0,0,0.0148,0.5151,0.0433,0.0645,0.2647,0
2003/8/2 4:00,0,0,0,0.0147,0.5397,0.0431,0.0153,0.267,0
2003/8/2 4:15,0,0,0,0.0147,0.492,0.0432,0.0153,0.2582,0
2003/8/2 4:30,0,0,0,0.0147,0.1715,0.0433,0.0156,0.2586,0
2003/8/2 4:45,0,0,0,0.0148,0.3155,0.0436,0.0154,0.2555,0
2003/8/2 5:00,0,0,0,0.0147,0.3737,0.0432,0.0156,0.2696,0
2003/8/2 5:15,0,0,0,0.0148,0.1257,0.0431,0.0661,0.254,0
2003/8/2 5:30,0,0,0,0.0147,0.4441,0.0433,0.0156,0.2609,0
2003/8/2 5:45,0,0,0,0.0148,0.0838,0.0432,0.0156,0.2563,0
2003/8/2 6:00,0,0,0,0.0147,0.4226,0.0431,0.0157,0.2608,0
2003/8/2 6:15,0,0,0,0.0147,0.1744,0.0431,0.0156,0.2588,0
2003/8/2 6:30,0,0,0,0.0148,0.3247,0.0435,0.0158,0.2598,0
2003/8/2 6:45,0,0,0,0.0147,0.2537,0.0432,0.0641,0.266,0
2003/8/2 7:00,0,0,0,0.0148,0.2291,0.0606,0.0304,0.2549,0
2003/8/2 7:15,0,0,0,0.0148,0.3299,0.0432,0.0271,0.2664,0
2003/8/2 7:30,0,0,0,0.0148,0.1165,0.0436,0.0264,0.2595,0
2003/8/2 7:45,0,0,0,0.0148,0.401,0.0436,0.0262,0.2637,0
2003/8/2 8:00,0,0,0,0.0147,0.1364,0.0432,0.0259,0.2635,0
2003/8/2 8:15,0,0,0,0.0148,0.3198,0.0608,0.0719,0.2595,0
2003/8/2 8:30,0,0,0,0.0145,0.3,0.0939,0.0262,0.2657,0
2003/8/2 8:45,0,0,0,0.0147,0.1475,0.0428,0.0255,0.252,0
2003/8/2 9:00,0,0,0,0.0145,0.3938,0.0423,0.0259,0.2578,0
2003/8/2 9:15,0,0,0,0.0144,0.0589,0.0422,0.0259,0.2478,0
2003/8/2 9:30,0,0,0,0.0147,0.4003,0.0431,0.0259,0.2624,0
2003/8/2 9:45,0,0,0,0.0147,0.1898,0.0428,0.0717,0.2533,0
2003/8/2 10:00,0,0,0,0.0147,0.2618,0.0431,0.0256,0.2602,0
2003/8/2 10:15,0,0,0,0.0147,0.3168,0.0431,0.0255,0.2555,0
2003/8/2 10:30,0,0,0,0.0147,0.1359,0.0429,0.0256,0.2517,0
2003/8/2 10:45,0,0,0,0.0145,0.4137,0.0425,0.0252,0.2506,0
2003/8/2 11:00,0,0,0,0.0147,0.0914,0.0428,0.0258,0.2472,0
2003/8/2 11:15,0,0,0,0.0145,0.4458,0.0425,0.0757,0.2536,0
2003/8/2 11:30,0,0,0,0.0147,0.0717,0.0428,0.0249,0.2493,0
2003/8/2 11:45,0,0,0,0.0145,0.4353,0.0426,0.0251,0.2481,0
2003/8/2 12:00,0,0,0,0.0145,0.2866,0.0511,0.0248,0.2508,0
2003/8/2 12:15,0,0,0,0.0147,0.103,0.0423,0.0251,0.2464,0
2003/8/2 12:30,0,0,0,0.0145,0.4501,0.0425,0.0248,0.2555,0
2003/8/2 12:45,0,0,0,0.0145,0.114,0.0423,0.0776,0.2529,0
2003/8/2 13:00,0,0,0,0.0144,0.3882,0.0425,0.0245,0.2526,0
2003/8/2 13:15,0,0,0,0.0145,0.1708,0.0423,0.024,0.2506,0
2003/8/2 13:30,0,0,0,0.0145,0.3259,0.0425,0.0242,0.2503,0
2003/8/2 13:45,0,0,0,0.0145,0.2661,0.0422,0.0242,0.2576,0
2003/8/2 14:00,0,0,0,0.0145,0.2366,0.0423,0.0239,0.2458,0
2003/8/2 14:15,0,0,0,0.0145,0.3218,0.0425,0.0238,0.2529,0
2003/8/2 14:30,0,0,0,0.0147,0.1662,0.0433,0.0236,0.2503,0
2003/8/2 14:45,0,0,0,0.0147,0.3908,0.0432,0.071,0.2586,0
2003/8/2 15:00,0,0,0,0.0148,0.0795,0.0432,0.0236,0.2543,0
2003/8/2 15:15,0,0,0,0.0147,0.3823,0.0432,0.0235,0.2493,0
2003/8/2 15:30,0,0,0,0.0147,0.2251,0.0431,0.0233,0.257,0
2003/8/2 15:45,0,0,0,0.0148,0.2295,0.0431,0.0229,0.251,0
2003/8/2 16:00,0,0,0,0.0147,0.3622,0.0433,0.0235,0.2572,0
2003/8/2 16:15,0,0,0,0.0148,0.0896,0.0432,0.0228,0.2543,0
2003/8/2 16:30,0,0,0,0.0147,0.4045,0.0433,0.0688,0.2543,0
2003/8/2 16:45,0,0,0,0.0148,0.1577,0.0431,0.0228,0.2569,0
2003/8/2 17:00,0,0,0,0.0148,0.3008,0.0433,0.023,0.2616,0
2003/8/2 17:15,0,0,0,0.0148,0.3233,0.0435,0.0226,0.2641,0
2003/8/2 17:30,0,0,0,0.015,0.124,0.0436,0.0228,0.2523,0
2003/8/2 17:45,0,0,0,0.0148,0.4009,0.0433,0.0223,0.2611,0
2003/8/2 18:00,0,0,0,0.0148,0.1469,0.0433,0.0661,0.2546,0
2003/8/2 18:15,0,0,0,0.0148,0.3132,0.0432,0.0144,0.2568,0
2003/8/2 18:30,0,0,0,0.0147,0.2915,0.0429,0.0098,0.2568,0
2003/8/2 18:45,0,0,0,0.0147,0.1632,0.0431,0.0121,0.2493,0
2003/8/2 19:00,0,0,0,0.0147,0.3937,0.06,0.0268,0.2831,0
2003/8/2 19:15,0,0,0,0.0147,0.1068,0.0426,0.0226,0.3056,0
2003/8/2 19:30,0,0,0,0.0145,0.3483,0.0428,0.0228,0.3073,0
2003/8/2 19:45,0,0,0,0.0147,0.2838,0.0428,0.0683,0.3112,0
2003/8/2 20:00,0,0,0,0.0147,0.1711,0.0428,0.0223,0.3073,0
2003/8/2 20:15,0,0,0,0.0148,0.3973,0.0431,0.022,0.3097,0
2003/8/2 20:30,0,0,0,0.0147,0.0952,0.0431,0.0222,0.3102,0
2003/8/2 20:45,0,0,0,0.0147,0.365,0.0432,0.0223,0.3146,0
2003/8/2 21:00,0,0,0,0.0148,0.2694,0.0431,0.0223,0.3089,0
2003/8/2 21:15,0,0,0,0.0148,0.1832,0.0431,0.0222,0.3051,0
2003/8/2 21:30,0,0,0,0.0145,0.3961,0.0428,0.0668,0.3051,0
2003/8/2 21:45,0,0,0,0.0148,0.0926,0.0431,0.022,0.3119,0
2003/8/2 22:00,0,0,0,0.0147,0.364,0.0432,0.0225,0.3128,0
2003/8/2 22:15,0,0,0,0.0148,0.2612,0.0431,0.0219,0.3097,0
2003/8/2 22:30,0,0,0,0.0147,0.1912,0.0428,0.0222,0.3047,0
2003/8/2 22:45,0,0,0,0.0145,0.3946,0.0426,0.0222,0.3063,0
2003/8/2 23:00,0,0,0,0.0147,0.0838,0.0426,0.0222,0.3095,0
2003/8/2 23:15,0,0,0,0.0145,0.3758,0.0425,0.074,0.3061,0
2003/8/2 23:30,0,0,0,0.0147,0.252,0.0428,0.0223,0.3113,0
2003/8/2 23:45,0,0,0,0.0147,0.2039,0.0433,0.0223,0.2971,0
2003/8/3 0:00,0,0,0,0.0148,0.3936,0.0435,0.0225,0.2647,0
2003/8/3 0:15,0,0,0,0.0148,0.0543,0.0432,0.0219,0.2588,0
2003/8/3 0:30,0,0,0,0.0147,0.4091,0.0429,0.0229,0.2634,0
2003/8/3 0:45,0,0,0,0.0147,0.2094,0.0432,0.0222,0.2608,0
2003/8/3 1:00,0,0,0,0.0148,0.2415,0.0432,0.0144,0.2569,0
2003/8/3 1:15,0,0,0,0.0148,0.3623,0.0432,0.0639,0.2578,0
2003/8/3 1:30,0,0,0,0.0148,0.0876,0.0436,0.012,0.2575,0
2003/8/3 1:45,0,0,0,0.015,0.4048,0.0436,0.0122,0.2645,0
2003/8/3 2:00,0,0,0,0.0148,0.1459,0.0433,0.0125,0.2618,0
2003/8/3 2:15,0,0,0,0.0148,0.3115,0.0436,0.0125,0.2572,0
2003/8/3 2:30,0,0,0,0.0147,0.3787,0.0426,0.0125,0.2598,0
2003/8/3 2:45,0,0,0,0.0147,0.4206,0.0431,0.0127,0.2602,0
2003/8/3 3:00,0,0,0,0.0148,0.3718,0.0433,0.0127,0.2629,0
2003/8/3 3:15,0,0,0,0.0148,0.572,0.0432,0.0651,0.2637,0
2003/8/3 3:30,0,0,0,0.0148,0.5092,0.0435,0.0128,0.2674,0
2003/8/3 3:45,0,0,0,0.0148,0.5473,0.0436,0.013,0.266,0
2003/8/3 4:00,0,0,0,0.0148,0.4935,0.0436,0.0128,0.2694,0
2003/8/3 4:15,0,0,0,0.0148,0.5136,0.0433,0.0132,0.2657,0
2003/8/3 4:30,0,0,0,0.0147,0.1787,0.0429,0.0128,0.2572,0
2003/8/3 4:45,0,0,0,0.0148,0.2261,0.0432,0.0132,0.2615,0
2003/8/3 5:00,0,0,0,0.0148,0.4389,0.0435,0.0622,0.2648,0
2003/8/3 5:15,0,0,0,0.0148,0.1476,0.0436,0.013,0.2611,0
2003/8/3 5:30,0,0,0,0.015,0.2661,0.0438,0.0135,0.2609,0
2003/8/3 5:45,0,0,0,0.0148,0.4392,0.0436,0.0131,0.2586,0
2003/8/3 6:00,0,0,0,0.0148,0.1424,0.0435,0.0134,0.2601,0
2003/8/3 6:15,0,0,0,0.0148,0.2727,0.0432,0.0135,0.2608,0
2003/8/3 6:30,0,0,0,0.0147,0.4026,0.0431,0.0134,0.2589,0
2003/8/3 6:45,0,0,0,0.015,0.0827,0.0436,0.0564,0.2601,0
2003/8/3 7:00,0,0,0,0.0147,0.3972,0.0605,0.0281,0.2598,0
2003/8/3 7:15,0,0,0,0.0148,0.1499,0.0432,0.0243,0.2537,0
2003/8/3 7:30,0,0,0,0.0147,0.3073,0.0429,0.024,0.2615,0
2003/8/3 7:45,0,0,0,0.0148,0.3145,0.0432,0.0236,0.264,0
2003/8/3 8:00,0,0,0,0.0148,0.1349,0.0436,0.0233,0.2533,0
2003/8/3 8:15,0,0,0,0.0148,0.3996,0.0436,0.0743,0.2719,0
2003/8/3 8:30,0,0,0,0.0148,0.0913,0.0431,0.0232,0.2568,0
2003/8/3 8:45,0,0,0,0.0147,0.3696,0.0428,0.023,0.2598,0
2003/8/3 9:00,0,0,0,0.0147,0.255,0.0428,0.0233,0.2546,0
2003/8/3 9:15,0,0,0,0.0147,0.2,0.0432,0.0232,0.2539,0
2003/8/3 9:30,0,0,0,0.0148,0.3928,0.0608,0.023,0.2529,0
2003/8/3 9:45,0,0,0,0.0148,0.0621,0.1106,0.023,0.2557,0
2003/8/3 10:00,0,0,0,0.0147,0.3976,0.0942,0.0687,0.2614,0
2003/8/3 10:15,0,0,0,0.0148,0.2156,0.0433,0.0228,0.2511,0
2003/8/3 10:30,0,0,0,0.0148,0.2614,0.0433,0.0226,0.2588,0
2003/8/3 10:45,0,0,0,0.0147,0.3825,0.0435,0.0226,0.2532,0
2003/8/3 11:00,0,0,0,0.0148,0.1215,0.0431,0.0222,0.2519,0
2003/8/3 11:15,0,0,0,0.0147,0.4454,0.0429,0.0223,0.2601,0
2003/8/3 11:30,0,0,0,0.0147,0.0865,0.0429,0.0222,0.2504,0
2003/8/3 11:45,0,0,0,0.0145,0.4221,0.0426,0.0736,0.2503,0
2003/8/3 12:00,0,0,0,0.0145,0.4157,0.0513,0.0217,0.2485,0
2003/8/3 12:15,0,0,0,0.0145,0.0765,0.0425,0.0215,0.2526,0
2003/8/3 12:30,0,0,0,0.0147,0.32,0.0428,0.0216,0.2514,0
2003/8/3 12:45,0,0,0,0.015,0.438,0.0439,0.0215,0.2539,0
2003/8/3 13:00,0,0,0,0.015,0.0708,0.0438,0.0213,0.2805,0
2003/8/3 13:15,0,0,0,0.0148,0.3828,0.0436,0.0215,0.2549,0
2003/8/3 13:30,0,0,0,0.0148,0.247,0.0438,0.0209,0.2608,0
2003/8/3 13:45,0,0,0,0.015,0.2602,0.0435,0.0207,0.3066,0
2003/8/3 14:00,0.4519,0,0,0.0148,0.3542,0.0477,0.7606,0.3311,0
2003/8/3 14:15,1.2819,0,0,0.1133,0.1525,0.0433,0.8401,1.1033,0
2003/8/3 14:30,0.5034,0,0,3.0663,0.4576,0.0438,0.4853,1.1448,0
2003/8/3 14:45,0,0,0,0.0173,0.4488,0.1547,0.5322,0.9739,0
2003/8/3 15:00,0,0,0,0.0484,0.4195,0.4841,0.0206,0.8027,0
2003/8/3 15:15,0,0,0,0.0871,0.1132,0.4687,0.0207,0.6402,0
2003/8/3 15:30,0,0,0,0.1063,0.4621,0.1364,0.0206,0.6114,0
2003/8/3 15:45,0,0,0,0.1215,0.3676,0.0991,0.0788,0.8728,0
2003/8/3 16:00,0,0,0,0.1241,0.0513,0.0883,0.8715,0.6237,0
2003/8/3 16:15,0,0,0,0.1238,0.4667,0.4281,0.7026,0.6756,0
2003/8/3 16:30,0,0,0,0.122,0.3767,0.1459,0.59,0.6107,0
2003/8/3 16:45,0,0,0,0.1224,0.12,0.0432,0.1931,0.5822,0
2003/8/3 17:00,0,0,0,0.123,0.4111,0.0432,0.0193,0.6091,0
2003/8/3 17:15,0,0,0,0.1224,0.326,0.0433,0.0192,0.9261,0
2003/8/3 17:30,0,0,0,0.1231,0.1339,0.0432,0.019,0.8987,0
2003/8/3 17:45,0,0,0,0.7157,0.4638,0.0433,0.0192,0.9193,0
2003/8/3 18:00,0,0,0,0.956,0.3606,0.0431,0.0667,1.2313,0
2003/8/3 18:15,0,0,0,1.1619,0.1236,0.0433,0.0128,1.8016,0
2003/8/3 18:30,0,0,0,1.8719,0.4667,0.0435,0.0153,1.3694,0
2003/8/3 18:45,0,0,0,0.7259,0.4036,0.0431,0.0081,1.226,0
2003/8/3 19:00,0,0,0,0.1526,0.1058,0.0603,0.0225,1.2122,0
2003/8/3 19:15,0,0,0,0.1551,0.4771,0.0426,0.019,1.488,0
2003/8/3 19:30,0,0,0,0.1492,0.4524,0.0425,0.0183,1.3346,0
2003/8/3 19:45,0,0,0,0.1519,0.1116,0.0426,0.0197,1.2207,0
2003/8/3 20:00,0,0,0,0.1437,0.4071,0.0426,0.0194,1.3307,0
2003/8/3 20:15,0,0,0,0.1472,0.4497,0.0429,0.0613,1.5271,0
2003/8/3 20:30,0,0,0,0.1413,0.1292,0.0428,0.0193,1.4184,0
2003/8/3 20:45,1.2555,0,0,0.1518,0.3976,0.1188,0.0192,1.3258,0
2003/8/3 21:00,1.7051,0,0,0.1693,0.4709,0.3931,0.0194,1.3517,0
2003/8/3 21:15,1.8575,0,0,0.1691,0.3351,0.3131,0.0192,1.344,0
2003/8/3 21:30,2.8716,0,0,0.1719,0.1712,0.2621,0.0192,0.9939,0
2003/8/3 21:45,2.8994,0,0,0.1813,0.4676,0.4085,0.0193,0.9272,0
2003/8/3 22:00,2.8801,0,0,0.6965,0.4372,0.4141,0.0192,0.9258,0
2003/8/3 22:15,2.858,0,0,0.1799,0.0586,0.3695,0.0703,0.9364,0
2003/8/3 22:30,1.6844,0,0,0.1676,0.4772,0.4193,0.0199,1.2188,0
2003/8/3 22:45,1.6844,0,0,0.1744,0.4644,0.4054,0.02,1.0797,0
2003/8/3 23:00,1.6739,0,0,0.1827,0.462,0.4117,0.0187,0.7926,0
2003/8/3 23:15,1.6612,0,0,0.1742,0.468,0.4022,0.0207,0.6251,0
2003/8/3 23:30,1.658,0,0,0.1767,0.0717,0.2125,0.0202,0.5007,0
2003/8/3 23:45,1.6584,0,0,0.1727,0.4653,0.0432,0.0204,0.3201,0
2003/8/4 0:00,1.6619,0,0,0.1807,0.4009,0.0435,0.0206,0.2902,0
2003/8/4 0:15,1.6537,0,0,0.1812,0.0968,0.0438,0.0207,0.2498,0
2003/8/4 0:30,1.6504,0,0,0.18,0.4628,0.0426,0.0644,0.2425,0
2003/8/4 0:45,1.6435,0,0,0.3177,0.3941,0.0431,0.0207,0.123,0
2003/8/4 1:00,1.643,0,0,0.3963,0.0971,0.0431,0.0137,0.052,0
2003/8/4 1:15,1.6338,0,0,0.2501,0.4153,0.0429,0.0085,0.1852,0
2003/8/4 1:30,1.6307,0,0,0.1437,0.3692,0.0433,0.0105,0.2671,0
2003/8/4 1:45,1.6256,0,0,0.1918,0.0896,0.0432,0.0109,0.2334,0
2003/8/4 2:00,1.6239,0,0,0.2048,0.4078,0.0432,0.0112,0.2521,0
2003/8/4 2:15,1.62,0,0,0.2036,0.3976,0.0436,0.058,0.2568,0
2003/8/4 2:30,1.6165,0,0,0.2055,0.4408,0.0433,0.0114,0.2376,0
2003/8/4 2:45,1.6155,0,0,0.212,0.3561,0.0435,0.019,0.3557,0
2003/8/4 3:00,1.6151,0,0,0.2065,0.5743,0.0439,0.0081,0.318,0
2003/8/4 3:15,1.6011,0,0,0.2098,0.5099,0.0428,0.0115,0.2356,0
2003/8/4 3:30,1.5972,0,0,0.2118,0.5808,0.0431,0.012,0.2434,0
2003/8/4 3:45,1.6069,0,0,0.21,0.5439,0.0431,0.0122,0.2445,0
2003/8/4 4:00,1.5911,0,0,0.2097,0.5374,0.0429,0.0624,0.248,0
2003/8/4 4:15,1.5893,0,0,0.2066,0.521,0.0435,0.0122,0.2484,0
2003/8/4 4:30,1.5875,0,0,0.2111,0.3095,0.0436,0.0125,0.2428,0
2003/8/4 4:45,1.5857,0,0,0.2147,0.1701,0.0436,0.0127,0.2436,0
2003/8/4 5:00,1.5844,0,0,0.2066,0.4588,0.0439,0.0128,0.2442,0
2003/8/4 5:15,1.5837,0,0,0.216,0.2615,0.0438,0.0128,0.2357,0
2003/8/4 5:30,1.5834,0,0,0.2059,0.2449,0.0439,0.0128,0.2485,0
2003/8/4 5:45,1.586,0,0,0.2229,0.4493,0.0438,0.0636,0.2542,0
2003/8/4 6:00,1.5903,0,0,0.2081,0.1018,0.0435,0.0131,0.2428,0
2003/8/4 6:15,1.5994,0,0,0.2172,0.4146,0.0438,0.0131,0.2471,0
2003/8/4 6:30,1.6066,0,0,0.2075,0.4274,0.0436,0.0132,0.2526,0
2003/8/4 6:45,1.6137,0,0,0.1774,0.0799,0.0441,0.0132,0.256,0
2003/8/4 7:00,1.6203,0,0,0.1524,0.3429,0.1424,0.0953,0.4251,0
2003/8/4 7:15,1.6334,0,0,4.031,0.3977,0.412,0.8009,1.17,0
2003/8/4 7:30,1.7754,0,0,1.5185,0.1037,0.4134,0.5196,1.2462,0
2003/8/4 7:45,1.8118,0,0,0.1696,0.4141,0.4137,0.552,1.0768,0
2003/8/4 8:00,1.8246,0,0,0.1797,0.4514,0.4121,0.5587,1.4861,0
2003/8/4 8:15,1.8281,0,0,0.5355,0.4634,0.4203,0.5718,1.0525,0
2003/8/4 8:30,1.874,0,0,0.1829,0.473,0.3855,0.0598,1.1212,0
2003/8/4 8:45,1.7722,0,0,1.2072,0.0645,0.444,0.4755,1.0308,0
2003/8/4 9:00,1.9205,0,0,0.6849,0.4925,0.3414,0.0196,1.1147,0
2003/8/4 9:15,1.9323,0,0,0.1814,0.4746,0.0429,0.0229,1.0195,0
2003/8/4 9:30,1.9865,0,0,0.1823,0.3292,0.0433,0.0235,1.1546,0
2003/8/4 9:45,2.301,0,0,0.1855,0.1871,0.0435,0.023,1.2347,0
2003/8/4 10:00,2.5152,0,0,0.1803,0.4719,0.0433,0.072,1.4386,0
2003/8/4 10:15,2.028,0,0,0.1778,0.4359,0.0432,0.0228,1.2286,0
2003/8/4 10:30,2.0114,0,0,0.1803,0.055,0.0426,0.0223,1.1887,0
2003/8/4 10:45,2.0981,0,0,0.1816,0.4196,0.0429,0.4163,1.5247,0
2003/8/4 11:00,2.2368,0,0,0.1699,0.4052,0.0428,0.077,1.2159,0
2003/8/4 11:15,2.0241,0,0,0.183,0.1702,0.0428,0.2886,1.2809,0
2003/8/4 11:30,1.9318,0,0,0.18,0.3135,0.0426,0.8355,1.3438,0
2003/8/4 11:45,2.0799,0,0,0.1765,0.4098,0.0425,0.0691,1.2397,0
2003/8/4 12:00,2.0504,0,0,0.1778,0.3974,0.0557,0.0215,1.3715,0
2003/8/4 12:15,2.0796,0,0,1.5709,0.3537,0.0425,0.014,1.2485,0
2003/8/4 12:30,2.1109,0,0,1.5916,0.1583,0.0425,0.0127,1.5517,0
2003/8/4 12:45,2.0272,0,0,0.3184,0.4706,0.0426,0.0086,1.0377,0
2003/8/4 13:00,1.9657,0,0,0.2648,0.4464,0.222,0.0258,1.0673,0
2003/8/4 13:15,2.1185,0,0,0.1624,0.057,0.4006,0.0217,1.2145,0
2003/8/4 13:30,2.2176,0,0,0.2098,0.4736,0.4056,0.0215,1.2849,0
2003/8/4 13:45,2.1378,0,0,0.2065,0.452,0.4052,0.1935,1.0623,0
2003/8/4 14:00,2.1663,0,0,0.2051,0.1306,0.2704,0.021,0.5485,0
2003/8/4 14:15,2.5788,0,0,0.2074,0.3897,0.0431,0.0206,0.5836,0
2003/8/4 14:30,2.5389,0,0,0.202,0.4535,0.0433,0.0206,0.5073,0
2003/8/4 14:45,2.3796,0,0,0.1992,0.16,0.0461,0.0206,0.5472,0
2003/8/4 15:00,2.1486,0,0,0.2051,0.3227,0.0432,0.0204,0.3305,0
2003/8/4 15:15,2.1198,0,0,0.2065,0.4126,0.0433,0.0204,0.1956,0
2003/8/4 15:30,2.1252,0,0,0.2053,0.2709,0.0429,0.0701,0.2458,0
2003/8/4 15:45,2.111,0,0,0.2049,0.2111,0.0432,0.02,0.321,0
2003/8/4 16:00,2.0733,0,0,0.2058,0.4147,0.0431,0.0202,0.2658,0
2003/8/4 16:15,2.0519,0,0,0.2042,0.2997,0.0432,0.0199,0.2972,0
2003/8/4 16:30,2.0231,0,0,0.2066,0.1829,0.0431,0.0199,0.1945,0
2003/8/4 16:45,1.9853,0,0,0.2003,0.4594,0.0432,0.0196,0.2143,0
2003/8/4 17:00,2.031,0,0,0.4114,0.3995,0.0432,0.0157,0.6974,0
2003/8/4 17:15,1.9908,0,0,0.2058,0.1028,0.0432,0.0194,0.8021,0
2003/8/4 17:30,2.0979,0,0,0.2053,0.4719,0.0429,0.0197,1.1223,0
2003/8/4 17:45,2.0673,0,0,0.204,0.4627,0.0433,0.0684,1.3464,0
2003/8/4 18:00,2.0303,0,0,0.2017,0.4532,0.0429,0.0197,1.5261,0
2003/8/4 18:15,1.9845,0,0,0.2061,0.3241,0.0429,0.0194,1.4829,0
2003/8/4 18:30,1.9293,0,0,0.1801,0.2069,0.1332,0.0186,1.4766,0
2003/8/4 18:45,1.8197,0,0,0.534,0.4697,0.4791,0.0186,1.3833,0
2003/8/4 19:00,1.8235,0,0,2.6539,0.4445,0.4696,0.0194,1.6376,0
2003/8/4 19:15,1.8019,0,0,2.9762,0.0573,0.2091,0.0197,2.0157,0
2003/8/4 19:30,1.7947,0,0,2.1828,0.4791,0.0884,0.0194,1.7436,0
2003/8/4 19:45,1.7729,0,0,1.4607,0.4431,0.088,0.019,1.7523,0
2003/8/4 20:00,1.7715,0,0,0.3928,0.0583,0.0878,0.019,1.7172,0
2003/8/4 20:15,1.7976,0,0,0.1405,0.4738,0.0876,0.0642,1.8894,0
2003/8/4 20:30,1.7608,0,0,0.1642,0.4537,0.0883,0.0197,1.5601,0
2003/8/4 20:45,1.7513,0,0,0.1719,0.132,0.088,0.019,1.5661,0
2003/8/4 21:00,1.7456,0,0,0.1708,0.3843,0.0883,0.0186,1.7461,0
2003/8/4 21:15,1.7526,0,0,0.1788,0.4516,0.0878,0.0192,1.6911,0
2003/8/4 21:30,1.7757,0,0,0.1763,0.1174,0.0878,0.0192,1.7326,0
2003/8/4 21:45,2.083,0,0,0.176,0.401,0.0887,0.0173,1.7621,0
2003/8/4 22:00,2.9278,0,0,0.1738,0.4493,0.0881,0.0199,1.1154,0
2003/8/4 22:15,2.933,0,0,0.1812,0.103,0.088,0.1549,0.8988,0
2003/8/4 22:30,2.9127,0,0,0.1765,0.3741,0.0877,0.9478,1.2296,0
2003/8/4 22:45,2.8956,0,0,0.184,0.4023,0.0874,0.5604,1.0793,0
2003/8/4 23:00,2.1434,0,0,0.1767,0.1392,0.0877,0.5103,1.3781,0
2003/8/4 23:15,1.695,0,0,0.182,0.3372,0.088,0.4814,1.1539,0
2003/8/4 23:30,1.6982,0,0,0.177,0.4075,0.0878,0.0199,1.1752,0
2003/8/4 23:45,1.6975,0,0,0.1768,0.3924,0.0883,0.0197,1.0732,0
2003/8/5 0:00,1.6972,0,0,0.1819,0.4362,0.1243,0.02,1.1932,0
2003/8/5 0:15,0.5617,0,0,0.1747,0.0552,0.399,0.0132,1.1732,0
2003/8/5 0:30,1.7279,0,0,1.8387,0.4224,0.0432,0.0652,0.8948,0
2003/8/5 0:45,0.5603,0,0,0.0736,0.3973,0.0433,0.0081,0.7525,0
2003/8/5 1:00,0.7073,0,0,0.0953,0.0585,0.0436,0.0088,0.3895,0
2003/8/5 1:15,1.2565,0,0,0.143,0.4202,0.0426,0.0098,0.2812,0
2003/8/5 1:30,0.3966,0,0,0.1584,0.3982,0.0428,0.0099,0.2837,0
2003/8/5 1:45,1.2725,0,0,0.1908,0.1002,0.0429,0.0099,0.3014,0
2003/8/5 2:00,0.0559,0,0,0.3982,0.3744,0.0429,0.0098,0.7255,0
2003/8/5 2:15,0.8942,0,0,0.1525,0.3982,0.0431,0.0101,0.274,0
2003/8/5 2:30,0.2527,0,0,0.1974,0.4414,0.0433,0.0543,0.2605,0
2003/8/5 2:45,0.9753,0,0,0.2133,0.3341,0.0435,0.0098,0.2511,0
2003/8/5 3:00,0.1738,0,0,0.2141,0.5629,0.0431,0.0099,0.2697,0
2003/8/5 3:15,0.1935,0,0,0.2127,0.5668,0.0433,0.0099,0.2657,0
2003/8/5 3:30,0.6003,0,0,0.2007,0.5223,0.0436,0.0098,0.3599,0